Location: Franzen
(48.6167°N, 15.3833°E)
Time: 09:22:45
(UTC+00:00)

Ariane Rocket - Pass Details

Date: 22 April 2021
Orbit: 760 x 770 km, 98.7° (Epoch: 16 May)

Event Time Altitude Azimuth Distance (km) Brightness Sun altitude
Exits shadow 19:18:22 - 175° (S) 2,897 5.6 -12.2°
Reaches altitude 10° 19:19:54 10° 178° (S) 2,289 5.1 -12.4°
Maximum altitude 19:24:53 59° 258° (WSW) 877 3.5 -13.1°
Drops below altitude 10° 19:29:54 10° 339° (NNW) 2,304 6.4 -13.7°
Sets 19:32:15 0° 343° (NNW) 3,234 7.2 -14.0°
